| time (UTC) | temp F | wind direction | speed MPH | gust MPH | rain 1hr in | rain 24hr in | rain mn in | humidity % | barometer mb |
| 20260509225754 | 51 | 319 | 6.0 | 12.0 | 0.00 | 0.00 | 0.00 | 36 | 1009.6 |
| 20260509225254 | 51 | 296 | 6.0 | 15.0 | 0.00 | 0.00 | 0.00 | 35 | 1009.5 |
| 20260509224754 | 51 | 348 | 6.0 | 9.0 | 0.00 | 0.00 | 0.00 | 36 | 1009.5 |
| 20260509224254 | 51 | 323 | 6.0 | 16.0 | 0.00 | 0.00 | 0.00 | 36 | 1009.4 |
| 20260509223754 | 51 | 347 | 7.0 | 14.0 | 0.00 | 0.00 | 0.00 | 37 | 1009.4 |
| 20260509223254 | 51 | 5 | 9.0 | 13.0 | 0.00 | 0.00 | 0.00 | 36 | 1009.4 |
| 20260509222754 | 51 | 0 | 9.0 | 17.0 | 0.00 | 0.00 | 0.00 | 36 | 1009.4 |
| 20260509222255 | 51 | 328 | 8.0 | 16.0 | 0.00 | 0.00 | 0.00 | 37 | 1009.3 |
| 20260509221754 | 52 | 27 | 9.0 | 12.0 | 0.00 | 0.00 | 0.00 | 36 | 1009.3 |
| 20260509221254 | 52 | 344 | 9.0 | 13.0 | 0.00 | 0.00 | 0.00 | 37 | 1009.2 |
| 20260509220754 | 52 | 339 | 7.0 | 15.0 | 0.00 | 0.00 | 0.00 | 37 | 1009.2 |
| 20260509220254 | 52 | 300 | 6.0 | 18.0 | 0.00 | 0.00 | 0.00 | 35 | 1009.1 |
| 20260509215754 | 53 | 289 | 4.0 | 11.0 | 0.00 | 0.00 | 0.00 | 38 | 1009.1 |
| 20260509215254 | 52 | 28 | 5.0 | 14.0 | 0.00 | 0.00 | 0.00 | 39 | 1009.1 |
| 20260509214754 | 52 | 336 | 7.0 | 12.0 | 0.00 | 0.00 | 0.00 | 37 | 1009.2 |
| 20260509214254 | 52 | 322 | 6.0 | 12.0 | 0.00 | 0.00 | 0.00 | 37 | 1009.1 |
| 20260509213754 | 51 | 252 | 7.0 | 13.0 | 0.00 | 0.00 | 0.00 | 38 | 1009.0 |
| 20260509213254 | 50 | 350 | 8.0 | 13.0 | 0.00 | 0.00 | 0.00 | 37 | 1009.0 |
| 20260509212754 | 51 | 355 | 7.0 | 17.0 | 0.00 | 0.00 | 0.00 | 37 | 1008.9 |
| 20260509212254 | 51 | 10 | 6.0 | 11.0 | 0.00 | 0.00 | 0.00 | 37 | 1008.9 |
| 20260509211754 | 51 | 296 | 8.0 | 16.0 | 0.00 | 0.00 | 0.00 | 37 | 1008.8 |
| 20260509211255 | 52 | 9 | 7.0 | 14.0 | 0.00 | 0.00 | 0.00 | 37 | 1008.8 |
| 20260509210755 | 52 | 348 | 5.0 | 15.0 | 0.00 | 0.00 | 0.00 | 37 | 1008.7 |
| 20260509210254 | 51 | 0 | 6.0 | 15.0 | 0.00 | 0.00 | 0.00 | 37 | 1008.7 |
| 20260509205755 | 51 | 254 | 7.0 | 13.0 | 0.00 | 0.00 | 0.00 | 37 | 1008.7 |
| 20260509205255 | 51 | 344 | 8.0 | 19.0 | 0.00 | 0.00 | 0.00 | 38 | 1008.7 |
| 20260509204755 | 51 | 31 | 8.0 | 15.0 | 0.00 | 0.00 | 0.00 | 37 | 1008.6 |
| 20260509204255 | 51 | 329 | 8.0 | 14.0 | 0.00 | 0.00 | 0.00 | 37 | 1008.5 |
| 20260509203755 | 51 | 322 | 8.0 | 19.0 | 0.00 | 0.00 | 0.00 | 37 | 1008.5 |
| 20260509203255 | 51 | 5 | 9.0 | 18.0 | 0.00 | 0.00 | 0.00 | 37 | 1008.3 |
| 20260509202755 | 51 | 340 | 9.0 | 20.0 | 0.00 | 0.00 | 0.00 | 38 | 1008.4 |
| 20260509202255 | 51 | 344 | 7.0 | 18.0 | 0.00 | 0.00 | 0.00 | 40 | 1008.4 |
| 20260509201755 | 52 | 35 | 6.0 | 16.0 | 0.00 | 0.00 | 0.00 | 38 | 1008.3 |
| 20260509201255 | 52 | 45 | 7.0 | 13.0 | 0.00 | 0.00 | 0.00 | 37 | 1008.2 |
| 20260509200755 | 52 | 14 | 8.0 | 19.0 | 0.00 | 0.00 | 0.00 | 37 | 1008.2 |
| 20260509200255 | 52 | 344 | 7.0 | 14.0 | 0.00 | 0.00 | 0.00 | 37 | 1008.1 |
| 20260509195755 | 52 | 57 | 7.0 | 15.0 | 0.00 | 0.00 | 0.00 | 39 | 1008.0 |
| 20260509195255 | 51 | 5 | 7.0 | 13.0 | 0.00 | 0.00 | 0.00 | 40 | 1007.9 |
| 20260509194755 | 50 | 327 | 7.0 | 20.0 | 0.00 | 0.00 | 0.00 | 40 | 1008.0 |
| 20260509194255 | 50 | 325 | 8.0 | 17.0 | 0.00 | 0.00 | 0.00 | 39 | 1008.0 |
| 20260509193755 | 50 | 338 | 9.0 | 25.0 | 0.00 | 0.00 | 0.00 | 39 | 1007.9 |
| 20260509193255 | 51 | 5 | 8.0 | 18.0 | 0.00 | 0.00 | 0.00 | 40 | 1007.7 |
| 20260509192755 | 51 | 346 | 9.0 | 14.0 | 0.00 | 0.00 | 0.00 | 38 | 1007.7 |
| 20260509192255 | 52 | 323 | 9.0 | 19.0 | 0.00 | 0.00 | 0.00 | 37 | 1007.7 |
| 20260509191755 | 52 | 349 | 8.0 | 16.0 | 0.00 | 0.00 | 0.00 | 40 | 1007.6 |
| 20260509191255 | 52 | 322 | 6.0 | 20.0 | 0.00 | 0.00 | 0.00 | 40 | 1007.5 |
| 20260509190755 | 51 | 315 | 6.0 | 12.0 | 0.00 | 0.00 | 0.00 | 42 | 1007.4 |
| 20260509190255 | 51 | 348 | 7.0 | 13.0 | 0.00 | 0.00 | 0.00 | 39 | 1007.4 |
| 20260509185755 | 52 | 44 | 7.0 | 17.0 | 0.00 | 0.00 | 0.00 | 40 | 1007.3 |
| 20260509185255 | 51 | 322 | 7.0 | 16.0 | 0.00 | 0.00 | 0.00 | 40 | 1007.2 |
| 20260509184755 | 51 | 291 | 7.0 | 15.0 | 0.00 | 0.00 | 0.00 | 42 | 1007.0 |
| 20260509184255 | 51 | 142 | 8.0 | 16.0 | 0.00 | 0.00 | 0.00 | 40 | 1007.0 |
| 20260509183755 | 51 | 348 | 10.0 | 18.0 | 0.00 | 0.00 | 0.00 | 42 | 1006.9 |
| 20260509183255 | 51 | 0 | 10.0 | 18.0 | 0.00 | 0.00 | 0.00 | 42 | 1007.0 |
| 20260509182755 | 51 | 346 | 12.0 | 18.0 | 0.00 | 0.00 | 0.00 | 40 | 1006.9 |
| 20260509182255 | 51 | 349 | 11.0 | 24.0 | 0.00 | 0.00 | 0.00 | 41 | 1006.9 |
| 20260509181755 | 51 | 5 | 7.0 | 22.0 | 0.00 | 0.00 | 0.00 | 43 | 1006.8 |
| 20260509181255 | 51 | 292 | 6.0 | 16.0 | 0.00 | 0.00 | 0.00 | 40 | 1006.6 |
| 20260509180755 | 51 | 267 | 7.0 | 15.0 | 0.00 | 0.00 | 0.00 | 40 | 1006.7 |
| 20260509180255 | 51 | 355 | 9.0 | 16.0 | 0.00 | 0.00 | 0.00 | 42 | 1006.8 |
| 20260509175755 | 51 | 355 | 9.0 | 19.0 | 0.00 | 0.00 | 0.00 | 40 | 1006.5 |
| 20260509175255 | 52 | 5 | 7.0 | 17.0 | 0.00 | 0.00 | 0.00 | 40 | 1006.6 |
| 20260509174755 | 51 | 244 | 7.0 | 19.0 | 0.00 | 0.00 | 0.00 | 41 | 1006.4 |
| 20260509174255 | 51 | 286 | 8.0 | 15.0 | 0.00 | 0.00 | 0.00 | 41 | 1006.3 |
| 20260509173755 | 50 | 313 | 9.0 | 18.0 | 0.00 | 0.00 | 0.00 | 40 | 1006.3 |
| 20260509173255 | 51 | 9 | 9.0 | 17.0 | 0.00 | 0.00 | 0.00 | 40 | 1006.3 |
| 20260509172755 | 51 | 355 | 9.0 | 18.0 | 0.00 | 0.00 | 0.00 | 40 | 1006.3 |
| 20260509172255 | 50 | 344 | 10.0 | 19.0 | 0.00 | 0.00 | 0.00 | 42 | 1006.1 |
| 20260509171755 | 50 | 318 | 10.0 | 24.0 | 0.00 | 0.00 | 0.00 | 41 | 1006.1 |
| 20260509171255 | 51 | 349 | 9.0 | 18.0 | 0.00 | 0.00 | 0.00 | 39 | 1006.1 |
| 20260509170755 | 51 | 0 | 10.0 | 20.0 | 0.00 | 0.00 | 0.00 | 38 | 1005.9 |
| 20260509170255 | 51 | 10 | 11.0 | 27.0 | 0.00 | 0.00 | 0.00 | 39 | 1005.9 |
| 20260509165755 | 51 | 251 | 12.0 | 27.0 | 0.00 | 0.00 | 0.00 | 40 | 1005.8 |
| 20260509165255 | 50 | 36 | 10.0 | 20.0 | 0.00 | 0.00 | 0.00 | 38 | 1005.8 |
| 20260509164755 | 51 | 11 | 9.0 | 21.0 | 0.00 | 0.00 | 0.00 | 38 | 1005.7 |
| 20260509164255 | 51 | 327 | 10.0 | 21.0 | 0.00 | 0.00 | 0.00 | 40 | 1005.6 |
| 20260509163755 | 51 | 327 | 11.0 | 23.0 | 0.00 | 0.00 | 0.00 | 38 | 1005.5 |
| 20260509163255 | 51 | 339 | 12.0 | 19.0 | 0.00 | 0.00 | 0.00 | 38 | 1005.4 |
| 20260509162755 | 51 | 0 | 12.0 | 24.0 | 0.00 | 0.00 | 0.00 | 38 | 1005.3 |
| 20260509162255 | 51 | 5 | 11.0 | 18.0 | 0.00 | 0.00 | 0.00 | 36 | 1005.2 |
| 20260509161755 | 51 | 294 | 8.0 | 15.0 | 0.00 | 0.00 | 0.00 | 37 | 1005.2 |
| 20260509161255 | 51 | 338 | 8.0 | 14.0 | 0.00 | 0.00 | 0.00 | 39 | 1005.2 |
| 20260509160755 | 51 | 282 | 7.0 | 16.0 | 0.00 | 0.00 | 0.00 | 38 | 1005.1 |
| 20260509160255 | 51 | 322 | 6.0 | 13.0 | 0.00 | 0.00 | 0.00 | 39 | 1004.9 |
| 20260509155755 | 51 | 0 | 8.0 | 13.0 | 0.00 | 0.00 | 0.00 | 38 | 1004.8 |
| 20260509155255 | 51 | 90 | 9.0 | 16.0 | 0.00 | 0.00 | 0.00 | 38 | 1005.0 |
| 20260509154755 | 51 | 265 | 8.0 | 19.0 | 0.00 | 0.00 | 0.00 | 39 | 1004.7 |
| 20260509154255 | 51 | 343 | 7.0 | 20.0 | 0.00 | 0.00 | 0.00 | 39 | 1004.8 |
| 20260509153755 | 50 | 322 | 6.0 | 22.0 | 0.00 | 0.00 | 0.00 | 37 | 1004.7 |
| 20260509153255 | 50 | 288 | 7.0 | 14.0 | 0.00 | 0.00 | 0.00 | 37 | 1004.5 |
| 20260509152755 | 50 | 312 | 9.0 | 16.0 | 0.00 | 0.00 | 0.00 | 38 | 1004.5 |
| 20260509152255 | 50 | 346 | 9.0 | 22.0 | 0.00 | 0.00 | 0.00 | 38 | 1004.4 |
| 20260509151755 | 50 | 343 | 9.0 | 22.0 | 0.00 | 0.00 | 0.00 | 39 | 1004.4 |
| 20260509151255 | 50 | 23 | 9.0 | 21.0 | 0.00 | 0.00 | 0.00 | 39 | 1004.3 |
| 20260509150755 | 50 | 10 | 6.0 | 16.0 | 0.00 | 0.00 | 0.00 | 39 | 1004.4 |
| 20260509150255 | 49 | 10 | 7.0 | 15.0 | 0.00 | 0.00 | 0.00 | 40 | 1004.2 |
| 20260509145755 | 49 | 321 | 8.0 | 18.0 | 0.00 | 0.00 | 0.00 | 40 | 1004.2 |
| 20260509145255 | 49 | 29 | 8.0 | 14.0 | 0.00 | 0.00 | 0.00 | 39 | 1004.2 |
| 20260509144755 | 49 | 355 | 9.0 | 18.0 | 0.00 | 0.00 | 0.00 | 38 | 1004.1 |
| 20260509144255 | 48 | 17 | 9.0 | 14.0 | 0.00 | 0.00 | 0.00 | 40 | 1004.0 |
| 20260509143755 | 48 | 309 | 7.0 | 17.0 | 0.00 | 0.00 | 0.00 | 40 | 1004.0 |
| 20260509143255 | 48 | 217 | 8.0 | 19.0 | 0.00 | 0.00 | 0.00 | 39 | 1003.9 |
| 20260509142755 | 48 | 269 | 7.0 | 18.0 | 0.00 | 0.00 | 0.00 | 39 | 1003.9 |
| 20260509142255 | 48 | 283 | 7.0 | 16.0 | 0.00 | 0.00 | 0.00 | 40 | 1003.8 |
| 20260509141755 | 48 | 343 | 7.0 | 14.0 | 0.00 | 0.00 | 0.00 | 38 | 1003.7 |
| 20260509141255 | 49 | 340 | 6.0 | 16.0 | 0.00 | 0.00 | 0.00 | 41 | 1003.6 |
| 20260509140756 | 48 | 5 | 6.0 | 11.0 | 0.00 | 0.00 | 0.00 | 41 | 1003.6 |
| 20260509140255 | 48 | 319 | 5.0 | 13.0 | 0.00 | 0.00 | 0.00 | 43 | 1003.6 |
| 20260509135755 | 48 | 272 | 5.0 | 15.0 | 0.00 | 0.00 | 0.00 | 43 | 1003.4 |
| 20260509135256 | 48 | 27 | 7.0 | 10.0 | 0.00 | 0.00 | 0.00 | 44 | 1003.5 |
| 20260509134756 | 47 | 277 | 6.0 | 13.0 | 0.00 | 0.00 | 0.00 | 48 | 1003.4 |
| 20260509134256 | 47 | 326 | 4.0 | 14.0 | 0.00 | 0.00 | 0.00 | 50 | 1003.5 |
| 20260509133756 | 47 | 303 | 4.0 | 9.0 | 0.00 | 0.00 | 0.00 | 53 | 1003.4 |
| 20260509133256 | 46 | 20 | 3.0 | 9.0 | 0.00 | 0.00 | 0.00 | 53 | 1003.4 |
| 20260509132756 | 46 | 323 | 2.0 | 8.0 | 0.00 | 0.00 | 0.00 | 56 | 1003.4 |
| 20260509132256 | 46 | 294 | 3.0 | 8.0 | 0.00 | 0.00 | 0.00 | 56 | 1003.3 |
| 20260509131756 | 46 | 306 | 3.0 | 8.0 | 0.00 | 0.00 | 0.00 | 58 | 1003.1 |
| 20260509131256 | 46 | 292 | 3.0 | 7.0 | 0.00 | 0.00 | 0.00 | 58 | 1003.1 |
| 20260509130756 | 45 | 273 | 3.0 | 8.0 | 0.00 | 0.00 | 0.00 | 61 | 1003.1 |
| 20260509130256 | 45 | 299 | 3.0 | 6.0 | 0.00 | 0.00 | 0.00 | 62 | 1003.1 |
| 20260509125756 | 45 | 277 | 2.0 | 6.0 | 0.00 | 0.00 | 0.00 | 64 | 1003.0 |
| 20260509125256 | 45 | 292 | 2.0 | 8.0 | 0.00 | 0.00 | 0.00 | 64 | 1003.0 |
| 20260509124756 | 45 | 344 | 2.0 | 6.0 | 0.00 | 0.00 | 0.00 | 65 | 1003.0 |
| 20260509124256 | 45 | 241 | 3.0 | 5.0 | 0.00 | 0.00 | 0.00 | 66 | 1002.9 |
| 20260509123756 | 45 | 299 | 3.0 | 9.0 | 0.00 | 0.00 | 0.00 | 66 | 1002.7 |
| 20260509123256 | 44 | 270 | 3.0 | 7.0 | 0.00 | 0.00 | 0.00 | 69 | 1002.7 |
| 20260509122756 | 44 | 294 | 2.0 | 8.0 | 0.00 | 0.00 | 0.00 | 71 | 1002.7 |
| 20260509122256 | 44 | 292 | 1.0 | 8.0 | 0.00 | 0.00 | 0.00 | 73 | 1002.7 |
| 20260509121756 | 44 | 253 | 1.0 | 2.0 | 0.00 | 0.00 | 0.00 | 74 | 1002.7 |
| 20260509121256 | 44 | 330 | 1.0 | 4.0 | 0.00 | 0.00 | 0.00 | 75 | 1002.7 |
| 20260509120756 | 44 | 311 | 1.0 | 3.0 | 0.00 | 0.00 | 0.00 | 75 | 1002.7 |
| 20260509120256 | 44 | 283 | 2.0 | 5.0 | 0.00 | 0.00 | 0.00 | 75 | 1002.6 |
| 20260509115756 | 44 | 255 | 2.0 | 7.0 | 0.00 | 0.00 | 0.00 | 75 | 1002.7 |
| 20260509115256 | 44 | 219 | 1.0 | 3.0 | 0.00 | 0.00 | 0.00 | 74 | 1002.6 |
| 20260509114756 | 44 | 330 | 0.0 | 2.0 | 0.00 | 0.00 | 0.00 | 74 | 1002.5 |
| 20260509114256 | 44 | 226 | 1.0 | 2.0 | 0.00 | 0.00 | 0.00 | 74 | 1002.4 |
| 20260509113756 | 44 | 240 | 1.0 | 5.0 | 0.00 | 0.00 | 0.00 | 73 | 1002.3 |
| 20260509113256 | 44 | 150 | 1.0 | 2.0 | 0.00 | 0.00 | 0.00 | 73 | 1002.3 |
| 20260509112756 | 44 | 242 | 2.0 | 5.0 | 0.00 | 0.00 | 0.00 | 72 | 1002.4 |
| 20260509112256 | 44 | 323 | 2.0 | 5.0 | 0.00 | 0.00 | 0.00 | 71 | 1002.3 |
| 20260509111756 | 44 | 273 | 2.0 | 5.0 | 0.00 | 0.00 | 0.00 | 71 | 1002.3 |
| 20260509111256 | 44 | 173 | 1.0 | 3.0 | 0.00 | 0.00 | 0.00 | 70 | 1002.2 |
| 20260509110756 | 45 | 157 | 1.0 | 5.0 | 0.00 | 0.00 | 0.00 | 69 | 1002.1 |
| 20260509110256 | 45 | 265 | 2.0 | 2.0 | 0.00 | 0.00 | 0.00 | 68 | 1001.9 |
| 20260509105756 | 45 | 217 | 1.0 | 4.0 | 0.00 | 0.00 | 0.00 | 66 | 1001.9 |
| 20260509105256 | 46 | 282 | 1.0 | 4.0 | 0.00 | 0.00 | 0.00 | 64 | 1001.9 |
| 20260509104756 | 46 | 213 | 2.0 | 4.0 | 0.00 | 0.00 | 0.00 | 63 | 1001.9 |
| 20260509104256 | 46 | 111 | 2.0 | 6.0 | 0.00 | 0.00 | 0.00 | 61 | 1001.8 |
| 20260509103756 | 47 | 225 | 2.0 | 7.0 | 0.00 | 0.00 | 0.00 | 59 | 1001.7 |
| 20260509103256 | 47 | 320 | 2.0 | 5.0 | 0.00 | 0.00 | 0.00 | 56 | 1001.7 |
| 20260509102758 | 47 | 12 | 1.0 | 3.0 | 0.00 | 0.00 | 0.00 | 49 | 1001.7 |
| 20260509102256 | 47 | 271 | 1.0 | 3.0 | 0.00 | 0.00 | 0.00 | 50 | 1001.7 |
| 20260509101756 | 47 | 247 | 1.0 | 6.0 | 0.00 | 0.00 | 0.00 | 49 | 1001.6 |
| 20260509101256 | 47 | 283 | 1.0 | 3.0 | 0.00 | 0.00 | 0.00 | 49 | 1001.6 |
| 20260509100756 | 47 | 192 | 1.0 | 2.0 | 0.00 | 0.00 | 0.00 | 49 | 1001.6 |
| 20260509100256 | 47 | 201 | 1.0 | 4.0 | 0.00 | 0.00 | 0.00 | 49 | 1001.7 |
| 20260509095756 | 47 | 299 | 0.0 | 2.0 | 0.00 | 0.00 | 0.00 | 49 | 1001.7 |
| 20260509095256 | 47 | 178 | 0.0 | 2.0 | 0.00 | 0.00 | 0.00 | 49 | 1001.6 |
| 20260509094756 | 48 | 306 | 1.0 | 2.0 | 0.00 | 0.00 | 0.00 | 50 | 1001.7 |
| 20260509094256 | 48 | 200 | 2.0 | 4.0 | 0.00 | 0.00 | 0.00 | 47 | 1001.6 |
| 20260509093756 | 48 | 267 | 1.0 | 5.0 | 0.00 | 0.00 | 0.00 | 48 | 1001.6 |
| 20260509093256 | 48 | 169 | 1.0 | 3.0 | 0.00 | 0.00 | 0.00 | 47 | 1001.6 |
| 20260509092756 | 48 | 202 | 1.0 | 3.0 | 0.00 | 0.00 | 0.00 | 47 | 1001.6 |
| 20260509092256 | 48 | 313 | 2.0 | 3.0 | 0.00 | 0.00 | 0.00 | 46 | 1001.6 |
| 20260509091756 | 48 | 290 | 2.0 | 6.0 | 0.00 | 0.00 | 0.00 | 46 | 1001.6 |
| 20260509091256 | 48 | 281 | 2.0 | 3.0 | 0.00 | 0.00 | 0.00 | 46 | 1001.6 |
| 20260509090756 | 48 | 304 | 3.0 | 8.0 | 0.00 | 0.00 | 0.00 | 46 | 1001.6 |
| 20260509090256 | 48 | 234 | 2.0 | 9.0 | 0.00 | 0.00 | 0.00 | 45 | 1001.4 |
| 20260509085756 | 48 | 335 | 1.0 | 4.0 | 0.00 | 0.00 | 0.00 | 45 | 1001.5 |
| 20260509085256 | 49 | 249 | 1.0 | 4.0 | 0.00 | 0.00 | 0.00 | 45 | 1001.4 |
| 20260509084756 | 49 | 180 | 1.0 | 2.0 | 0.00 | 0.00 | 0.00 | 46 | 1001.4 |
| 20260509084256 | 49 | 309 | 2.0 | 4.0 | 0.00 | 0.00 | 0.00 | 44 | 1001.4 |
| 20260509083756 | 49 | 300 | 2.0 | 4.0 | 0.00 | 0.00 | 0.00 | 44 | 1001.3 |
| 20260509083256 | 49 | 315 | 2.0 | 10.0 | 0.00 | 0.00 | 0.00 | 45 | 1001.4 |
| 20260509082756 | 49 | 309 | 1.0 | 8.0 | 0.00 | 0.00 | 0.00 | 45 | 1001.4 |
| 20260509082256 | 49 | 160 | 0.0 | 2.0 | 0.00 | 0.00 | 0.00 | 47 | 1001.4 |
| 20260509081756 | 49 | 211 | 1.0 | 2.0 | 0.00 | 0.00 | 0.00 | 47 | 1001.5 |
| 20260509081256 | 49 | 263 | 1.0 | 2.0 | 0.00 | 0.00 | 0.00 | 47 | 1001.4 |
| 20260509080756 | 49 | 205 | 1.0 | 3.0 | 0.00 | 0.00 | 0.00 | 48 | 1001.4 |
| 20260509080256 | 48 | 281 | 1.0 | 5.0 | 0.00 | 0.00 | 0.00 | 48 | 1001.5 |
| 20260509075757 | 48 | 273 | 1.0 | 4.0 | 0.00 | 0.00 | 0.00 | 49 | 1001.4 |
| 20260509075256 | 47 | 202 | 1.0 | 4.0 | 0.00 | 0.00 | 0.00 | 51 | 1001.5 |
| 20260509074756 | 47 | 140 | 2.0 | 4.0 | 0.00 | 0.00 | 0.00 | 52 | 1001.5 |
| 20260509074256 | 46 | 118 | 1.0 | 3.0 | 0.00 | 0.00 | 0.00 | 55 | 1001.5 |
| 20260509073756 | 45 | 236 | 0.0 | 3.0 | 0.00 | 0.00 | 0.00 | 55 | 1001.6 |
| 20260509073256 | 45 | 267 | 0.0 | 0.0 | 0.00 | 0.00 | 0.00 | 58 | 1001.7 |
| 20260509072756 | 45 | 282 | 0.0 | 0.0 | 0.00 | 0.00 | 0.00 | 60 | 1001.6 |
| 20260509072256 | 45 | 270 | 0.0 | 0.0 | 0.00 | 0.00 | 0.00 | 59 | 1001.6 |
| 20260509071756 | 45 | 270 | 0.0 | 0.0 | 0.00 | 0.00 | 0.00 | 59 | 1001.5 |
| 20260509071256 | 45 | 270 | 0.0 | 0.0 | 0.00 | 0.00 | 0.00 | 59 | 1001.5 |
| 20260509070756 | 45 | 270 | 0.0 | 0.0 | 0.00 | 0.00 | 0.00 | 58 | 1001.5 |
| 20260509070256 | 45 | 261 | 0.0 | 0.0 | 0.00 | 0.00 | 0.00 | 59 | 1001.4 |
| 20260509065756 | 45 | 261 | 0.0 | 0.0 | 0.00 | 0.00 | 0.00 | 59 | 1001.5 |
| 20260509065256 | 45 | 261 | 0.0 | 0.0 | 0.00 | 0.00 | 0.00 | 57 | 1001.6 |
| 20260509064756 | 46 | 261 | 0.0 | 0.0 | 0.00 | 0.00 | 0.00 | 56 | 1001.7 |
| 20260509064257 | 46 | 261 | 0.0 | 0.0 | 0.00 | 0.00 | 0.00 | 57 | 1001.7 |
| 20260509063757 | 46 | 261 | 0.0 | 0.0 | 0.00 | 0.00 | 0.00 | 55 | 1001.7 |
| 20260509063257 | 47 | 261 | 0.0 | 0.0 | 0.00 | 0.00 | 0.00 | 54 | 1001.8 |
| 20260509062757 | 47 | 260 | 0.0 | 0.0 | 0.00 | 0.00 | 0.00 | 52 | 1002.1 |
| 20260509062257 | 47 | 259 | 0.0 | 0.0 | 0.00 | 0.00 | 0.00 | 51 | 1002.1 |
| 20260509061757 | 47 | 259 | 0.0 | 0.0 | 0.00 | 0.00 | 0.00 | 51 | 1002.0 |
| 20260509061257 | 47 | 251 | 0.0 | 0.0 | 0.00 | 0.00 | 0.00 | 51 | 1001.9 |
| 20260509060757 | 47 | 281 | 0.0 | 0.0 | 0.00 | 0.00 | 0.00 | 50 | 1001.9 |
| 20260509060257 | 48 | 298 | 0.0 | 0.0 | 0.00 | 0.00 | 0.00 | 50 | 1001.9 |
| 20260509055757 | 48 | 221 | 0.0 | 0.0 | 0.00 | 0.00 | 0.00 | 48 | 1001.9 |
| 20260509055257 | 49 | 269 | 0.0 | 1.0 | 0.00 | 0.00 | 0.00 | 48 | 1001.9 |
| 20260509054757 | 49 | 269 | 0.0 | 2.0 | 0.00 | 0.00 | 0.00 | 48 | 1001.9 |
| 20260509054257 | 49 | 267 | 0.0 | 0.0 | 0.00 | 0.00 | 0.00 | 46 | 1001.6 |
| 20260509053757 | 50 | 261 | 0.0 | 1.0 | 0.00 | 0.00 | 0.00 | 46 | 1001.7 |
| 20260509053257 | 50 | 241 | 0.0 | 2.0 | 0.00 | 0.00 | 0.00 | 45 | 1001.8 |
| 20260509052757 | 51 | 229 | 0.0 | 0.0 | 0.00 | 0.00 | 0.00 | 46 | 1001.8 |
| 20260509052257 | 51 | 254 | 1.0 | 2.0 | 0.00 | 0.00 | 0.00 | 43 | 1002.1 |
| 20260509051757 | 51 | 276 | 1.0 | 4.0 | 0.00 | 0.00 | 0.00 | 43 | 1002.0 |
| 20260509051257 | 51 | 242 | 1.0 | 2.0 | 0.00 | 0.00 | 0.00 | 43 | 1002.0 |
| 20260509050757 | 52 | 270 | 1.0 | 5.0 | 0.00 | 0.00 | 0.00 | 43 | 1001.8 |
| 20260509050257 | 52 | 266 | 1.0 | 4.0 | 0.00 | 0.00 | 0.00 | 42 | 1001.8 |
| 20260509045757 | 53 | 213 | 2.0 | 4.0 | 0.00 | 0.00 | 0.00 | 41 | 1001.9 |
| 20260509045257 | 53 | 246 | 2.0 | 4.0 | 0.00 | 0.00 | 0.00 | 40 | 1001.9 |
| 20260509044757 | 53 | 346 | 2.0 | 6.0 | 0.00 | 0.00 | 0.00 | 39 | 1001.9 |
| 20260509044257 | 54 | 286 | 2.0 | 8.0 | 0.00 | 0.00 | 0.00 | 40 | 1001.9 |
| 20260509043757 | 54 | 334 | 3.0 | 7.0 | 0.00 | 0.00 | 0.00 | 39 | 1001.9 |
| 20260509043257 | 54 | 5 | 3.0 | 11.0 | 0.00 | 0.00 | 0.00 | 39 | 1001.9 |
| 20260509042757 | 54 | 264 | 3.0 | 9.0 | 0.00 | 0.00 | 0.00 | 39 | 1001.8 |
| 20260509042257 | 54 | 327 | 3.0 | 6.0 | 0.00 | 0.00 | 0.00 | 40 | 1001.8 |
| 20260509041757 | 54 | 327 | 3.0 | 9.0 | 0.00 | 0.00 | 0.00 | 39 | 1001.7 |
| 20260509041257 | 53 | 317 | 3.0 | 7.0 | 0.00 | 0.00 | 0.00 | 40 | 1001.6 |
| 20260509040757 | 52 | 243 | 3.0 | 8.0 | 0.00 | 0.00 | 0.00 | 41 | 1001.6 |
| 20260509040257 | 51 | 355 | 2.0 | 7.0 | 0.00 | 0.00 | 0.00 | 44 | 1001.6 |
| 20260509035757 | 49 | 355 | 1.0 | 7.0 | 0.00 | 0.00 | 0.00 | 47 | 1001.5 |
| 20260509035257 | 48 | 262 | 0.0 | 0.0 | 0.00 | 0.00 | 0.00 | 50 | 1001.4 |
| 20260509034757 | 48 | 277 | 0.0 | 0.0 | 0.00 | 0.00 | 0.00 | 50 | 1001.3 |
| 20260509034257 | 47 | 231 | 0.0 | 0.0 | 0.00 | 0.00 | 0.00 | 50 | 1001.3 |
| 20260509033759 | 47 | 201 | 0.0 | 0.0 | 0.00 | 0.00 | 0.00 | 51 | 1001.3 |
| 20260509033257 | 48 | 244 | 0.0 | 0.0 | 0.00 | 0.00 | 0.00 | 50 | 1001.3 |
| 20260509032757 | 48 | 182 | 0.0 | 0.0 | 0.00 | 0.00 | 0.00 | 51 | 1001.2 |
| 20260509032257 | 48 | 236 | 0.0 | 0.0 | 0.00 | 0.00 | 0.00 | 51 | 1001.2 |
| 20260509031757 | 49 | 236 | 0.0 | 0.0 | 0.00 | 0.00 | 0.00 | 49 | 1001.1 |
| 20260509031257 | 49 | 236 | 0.0 | 0.0 | 0.00 | 0.00 | 0.00 | 49 | 1001.2 |
| 20260509030757 | 49 | 236 | 0.0 | 1.0 | 0.00 | 0.00 | 0.00 | 47 | 1001.2 |
| 20260509030257 | 50 | 236 | 0.0 | 0.0 | 0.00 | 0.00 | 0.00 | 47 | 1001.2 |
| 20260509025757 | 50 | 236 | 0.0 | 0.0 | 0.00 | 0.00 | 0.00 | 48 | 1001.2 |
| 20260509025257 | 50 | 236 | 0.0 | 0.0 | 0.00 | 0.00 | 0.00 | 46 | 1001.2 |
| 20260509024757 | 51 | 236 | 0.0 | 0.0 | 0.00 | 0.00 | 0.00 | 47 | 1001.1 |
| 20260509024257 | 51 | 236 | 0.0 | 0.0 | 0.00 | 0.00 | 0.00 | 46 | 1001.1 |
| 20260509023757 | 52 | 236 | 0.0 | 0.0 | 0.00 | 0.00 | 0.00 | 46 | 1001.2 |
| 20260509023257 | 52 | 236 | 0.0 | 0.0 | 0.00 | 0.00 | 0.00 | 46 | 1001.2 |
| 20260509022757 | 52 | 236 | 0.0 | 0.0 | 0.00 | 0.00 | 0.00 | 46 | 1001.1 |
| 20260509022257 | 53 | 236 | 0.0 | 0.0 | 0.00 | 0.00 | 0.00 | 44 | 1001.2 |
| 20260509021757 | 53 | 236 | 0.0 | 0.0 | 0.00 | 0.00 | 0.00 | 43 | 1001.2 |
| 20260509021257 | 53 | 236 | 0.0 | 0.0 | 0.00 | 0.00 | 0.00 | 42 | 1001.2 |
| 20260509020757 | 53 | 236 | 0.0 | 0.0 | 0.00 | 0.00 | 0.00 | 43 | 1001.2 |
| 20260509020257 | 54 | 236 | 0.0 | 0.0 | 0.00 | 0.00 | 0.00 | 43 | 1001.1 |
| 20260509015757 | 54 | 236 | 0.0 | 0.0 | 0.00 | 0.00 | 0.00 | 42 | 1001.1 |
| 20260509015257 | 55 | 236 | 0.0 | 0.0 | 0.00 | 0.00 | 0.00 | 42 | 1001.2 |
| 20260509014757 | 55 | 236 | 0.0 | 0.0 | 0.00 | 0.00 | 0.00 | 40 | 1001.2 |
| 20260509014257 | 55 | 236 | 0.0 | 0.0 | 0.00 | 0.00 | 0.00 | 39 | 1001.2 |
| 20260509013757 | 55 | 236 | 0.0 | 0.0 | 0.00 | 0.00 | 0.00 | 39 | 1001.2 |
| 20260509013257 | 56 | 236 | 0.0 | 0.0 | 0.00 | 0.00 | 0.00 | 39 | 1001.2 |
| 20260509012757 | 56 | 236 | 0.0 | 0.0 | 0.00 | 0.00 | 0.00 | 38 | 1001.2 |
| 20260509012257 | 56 | 236 | 0.0 | 0.0 | 0.00 | 0.00 | 0.00 | 38 | 1001.3 |
| 20260509011757 | 57 | 236 | 0.0 | 1.0 | 0.00 | 0.00 | 0.00 | 38 | 1001.3 |
| 20260509011257 | 57 | 236 | 0.0 | 1.0 | 0.00 | 0.00 | 0.00 | 37 | 1001.3 |
| 20260509010757 | 58 | 236 | 0.0 | 0.0 | 0.00 | 0.00 | 0.00 | 36 | 1001.4 |
| 20260509010257 | 58 | 236 | 0.0 | 0.0 | 0.00 | 0.00 | 0.00 | 35 | 1001.4 |
| 20260509005757 | 58 | 236 | 0.0 | 0.0 | 0.00 | 0.00 | 0.00 | 35 | 1001.5 |
| 20260509005257 | 59 | 236 | 0.0 | 0.0 | 0.00 | 0.00 | 0.00 | 35 | 1001.4 |
| 20260509004757 | 59 | 236 | 0.0 | 2.0 | 0.00 | 0.00 | 0.00 | 34 | 1001.4 |
| 20260509004257 | 59 | 255 | 0.0 | 2.0 | 0.00 | 0.00 | 0.00 | 32 | 1001.5 |
| 20260509003757 | 60 | 223 | 1.0 | 2.0 | 0.00 | 0.00 | 0.00 | 32 | 1001.4 |
| 20260509003257 | 60 | 330 | 1.0 | 4.0 | 0.00 | 0.00 | 0.00 | 31 | 1001.5 |
| 20260509002757 | 60 | 263 | 0.0 | 3.0 | 0.00 | 0.00 | 0.00 | 32 | 1001.5 |
| 20260509002257 | 60 | 355 | 0.0 | 1.0 | 0.00 | 0.00 | 0.00 | 31 | 1001.5 |
| 20260509001758 | 60 | 0 | 1.0 | 3.0 | 0.00 | 0.00 | 0.00 | 29 | 1001.6 |
| 20260509001257 | 61 | 347 | 1.0 | 4.0 | 0.00 | 0.00 | 0.00 | 29 | 1001.7 |
| 20260509000757 | 61 | 322 | 2.0 | 6.0 | 0.00 | 0.00 | 0.00 | 30 | 1001.7 |
| 20260509000257 | 61 | 175 | 2.0 | 6.0 | 0.00 | 0.00 | 0.00 | 29 | 1001.7 |
| 20260508235757 | 61 | 5 | 2.0 | 5.0 | 0.00 | 0.00 | 0.00 | 30 | 1001.8 |
| 20260508235257 | 61 | 155 | 2.0 | 6.0 | 0.00 | 0.00 | 0.00 | 29 | 1001.8 |
| 20260508234757 | 61 | 252 | 3.0 | 8.0 | 0.00 | 0.00 | 0.00 | 28 | 1001.8 |
| 20260508234257 | 61 | 315 | 3.0 | 7.0 | 0.00 | 0.00 | 0.00 | 29 | 1001.9 |
| 20260508233758 | 62 | 87 | 2.0 | 5.0 | 0.00 | 0.00 | 0.00 | 28 | 1001.9 |
| 20260508233258 | 62 | 98 | 2.0 | 10.0 | 0.00 | 0.00 | 0.00 | 28 | 1002.0 |
| 20260508232758 | 62 | 168 | 2.0 | 6.0 | 0.00 | 0.00 | 0.00 | 28 | 1002.2 |
| 20260508232258 | 62 | 227 | 2.0 | 5.0 | 0.00 | 0.00 | 0.00 | 27 | 1002.2 |
| 20260508231758 | 62 | 288 | 4.0 | 9.0 | 0.00 | 0.00 | 0.00 | 28 | 1002.2 |
| 20260508231258 | 62 | 263 | 4.0 | 12.0 | 0.00 | 0.00 | 0.00 | 28 | 1002.2 |
| 20260508230758 | 62 | 183 | 3.0 | 17.0 | 0.00 | 0.00 | 0.00 | 27 | 1002.2 |
| 20260508230258 | 62 | 236 | 3.0 | 7.0 | 0.00 | 0.00 | 0.00 | 28 | 1002.3 |